Regional Weather Roundup
Issued by NWS Kansas City/Pleasant Hill, MO

Home | Current Version | Previous Version | Graphics & Text | Print | Product List | Glossary Off
Versions: 1 2 3 4 5 6 7 8 9 10 11 12 13 14 15 16 17 18 19 20 21 22 23 24 25 26 27 28 29 30 31 32 33 34 35 36 37 38 39 40 41 42 43 44 45 46 47 48 49 50

000
ASUS43 KEAX 030110
RWREAX

WEATHER ROUNDUP FOR EASTERN KANSAS AND NORTHWEST MISSOURI
NATIONAL WEATHER SERVICE KANSAS CITY/PLEASANT HILL MO
800 PM CDT MON MAY 02 2016

KSZ040-057-103>105-MOZ028-029-037-043-030200-
...KANSAS CITY METROPOLITAN AREA...

CITY           SKY/WX    TMP DP  RH WIND       PRES   REMARKS
K.C. INTL      PTCLDY    54  46  74 SW3       30.06S
K.C. DOWNTOWN  CLEAR     56  45  66 W3        30.06S
LEES SUMMIT    CLOUDY    54  47  77 W5        30.07S
OLATHE - IXD   PTCLDY    54  45  71 W3        30.08S
OLATHE - OJC   PTCLDY    53  44  71 NW3       30.07F
LAWRENCE       PTCLDY    55  45  68 W3        30.07F

$$

MOZ001>008-011>017-020>025-030>033-038>040-044>046-053-054-030200-
...NORTHERN AND CENTRAL MISSOURI...

CITY           SKY/WX    TMP DP  RH WIND       PRES   REMARKS
ST. JOSEPH     PTCLDY    56  47  71 SW5       30.05F
WHITEMAN AFB   NOT AVBL
CLINTON        NOT AVBL
SEDALIA        CLOUDY    53  48  83 NW3       30.07S
WARSAW         NOT AVBL
CHILLICOTHE      N/A     56  49  77 SE5       30.06S
KIRKSVILLE     CLOUDY    53  47  79 CALM      30.06S

$$

MOZ041-047>049-056>058-063>065-088>090-097-030200-
...EASTERN AND SOUTHERN MISSOURI...

CITY           SKY/WX    TMP DP  RH WIND       PRES   REMARKS
ST. LOUIS INTL CLOUDY    55  48  76 NW6       30.02S
SPIRIT OF STL  CLOUDY    54  50  86 W5        30.02R
COLUMBIA       LGT RAIN  51  49  92 N6        30.05S FOG
JEFFERSON CITY CLOUDY    53  48  83 NW7       30.04F
ROLLA          CLOUDY    50  47  89 NW5       30.02S
OSAGE BEACH    CLOUDY    52  39  62 CALM      30.05S
SPRINGFIELD    CLOUDY    52  45  77 NW5       30.05S
BRANSON        CLOUDY    52  46  82 CALM      30.06R
JOPLIN         CLOUDY    52  48  86 CALM      30.07F
WEST PLAINS    CLOUDY    54  45  71 NW12      30.03R

$$

IAZ060-094-KSZ022-034>040-054-083-096-NEZ052-066-093-030200-
...KANSAS...SOUTHEAST NEBRASKA AND IOWA...

CITY           SKY/WX    TMP DP  RH WIND       PRES   REMARKS
TOPEKA         CLEAR     56  45  66 CALM      30.07F
MANHATTAN      CLEAR     57  42  57 CALM      30.06S
EMPORIA        MOCLDY    56  43  61 E6        30.07S
CHANUTE        CLOUDY    56  46  69 CALM      30.08S
WICHITA        PTCLDY    60  37  42 N6        30.07S
OMAHA          PTCLDY    61  38  42 CALM      30.04S
LINCOLN        PTCLDY    61  36  39 W3        30.06S
FALLS CITY     PTCLDY    59  41  51 CALM      30.05S
LAMONI         CLEAR     55  42  61 E5        30.05S
DES MOINES     PTCLDY    57  42  57 SE6       30.05R

$$




USA.gov is the U.S. government's official web portal to all federal, state and local government web resources and services.